[[{"header":{"parameterUnit":"m.s-1","parameterCategory":1,"la1":30.2991,"la2":30.254,"lo1":-89.0895,"lo2":-89.0444,"dy":0.0017,"dx":0.0017,"nx":28,"ny":28,"refTime":"2023-08-02T09:00:00:Z","depth":0,"parameterNumber":2,"parameterNumberName":"U-component_of_WINDS"},"data":[0,0,0,0,0,0,0,0,0,0,0,0,0,0,0,0,0,0,0,0,0,0,0,0,0,0,0,0,0,0,0,0,0,0,0,0,0,0,0,0,0,0,0,0,0,0,0,0,0,0,0,0,0,0,0,0,0,0,1.3527,1.3526,0,1.3489,1.3488,1.3488,1.3424,1.3423,1.3422,1.3421,1.3381,1.3382,1.3382,0,0,0,0,0,0,0,0,0,0,0,0,0,1.3543,1.3543,1.3527,1.3526,1.3526,1.3489,1.3488,1.3488,1.3425,1.3423,1.3422,1.342,1.3381,1.3382,1.3382,0,0,0,0,0,0,0,0,0,0,0,0,0,1.3523,1.3543,1.3527,1.349,1.3486,1.3489,1.3488,1.3487,1.3425,1.3423,1.3421,1.342,1.3381,1.3382,1.3382,1.3417,0,0,1.3382,1.3382,0,0,0,0,0,0,0,0,1.3524,1.3523,1.3496,1.3492,1.3488,1.3459,1.3479,1.3464,1.3425,1.3448,1.3421,1.3419,1.3409,1.3407,1.3403,1.3415,1.3414,1.3382,1.3382,1.3382,1.3382,0,0,0,0,0,0,0,1.3526,1.3524,1.3512,1.3495,1.3491,1.3474,1.347,1.3476,1.3439,1.3446,1.3441,1.3438,1.3406,1.3403,1.3402,1.3413,1.3382,1.3382,1.3382,1.3382,1.3448,1.345,0,0,0,0,0,0,1.3533,1.3526,1.3513,1.351,1.3502,1.3476,1.347,1.347,1.3439,1.3432,1.3439,1.3435,1.3404,1.3402,1.34,1.3436,1.3382,1.3382,1.3382,1.3446,1.3449,1.345,0,0,0,0,0,0,1.3533,1.3532,1.3514,1.3517,1.3513,1.3477,1.3478,1.3471,1.3467,1.3433,1.3426,1.3443,1.3403,1.34,1.3412,1.3434,1.3382,1.3382,1.3444,1.3447,1.3449,1.3512,0,0,0,0,0,0,1.3534,1.3533,1.3547,1.3517,1.3513,1.3528,1.3479,1.3471,1.3468,1.3462,1.3435,1.3429,1.3401,1.3413,1.3413,1.3433,1.3382,1.3442,1.3446,1.3449,1.3507,1.3516,1.3523,0,0,0,0,0,1.3535,1.3567,1.3548,1.3547,1.353,1.353,1.3527,1.3494,1.347,1.3482,1.346,1.343,1.3433,1.3415,1.3414,1.3435,1.3441,1.3445,1.3448,1.3504,1.3514,1.3523,0,0,0,0,0,0,1.36,1.3562,1.3541,1.3564,1.355,1.3519,1.3534,1.3507,1.35,1.3495,1.3455,1.3449,1.3466,1.3452,1.3433,1.3466,1.3432,1.3436,1.3474,1.3484,1.3492,1.3493,1.3382,0,0,0,0,0,1.3617,1.362,1.3587,1.3611,1.3605,1.3571,1.357,1.3545,1.353,1.3524,1.3502,1.3488,1.3485,1.3484,1.348,1.3506,1.3497,1.352,1.3528,1.3535,1.3538,1.3547,1.3555,1.3463,1.3463,1.3463,0,0,1.3652,1.3632,1.3636,1.3623,1.3609,1.3612,1.3566,1.3573,1.3574,1.3524,1.3534,1.3518,1.3499,1.3517,1.3524,1.3506,1.3561,1.354,1.3545,1.3544,1.3552,1.356,1.3568,1.3466,1.3465,1.3465,0,0,1.3716,1.3703,1.3719,1.3706,1.3686,1.3663,1.3667,1.364,1.3627,1.3636,1.3597,1.3598,1.3596,1.3582,1.3575,1.3633,1.3603,1.3633,1.3674,1.3683,1.369,1.3696,1.3714,1.3721,1.3637,1.3637,1.3637,0,1.3762,1.3766,1.3731,1.3739,1.3733,1.3688,1.3703,1.3692,1.3672,1.3668,1.3649,1.3641,1.3626,1.3639,1.3652,1.365,1.3651,1.3635,1.3692,1.3698,1.3703,1.3719,1.3726,1.364,1.364,1.3639,1.3639,0,1.3822,1.3825,1.384,1.3821,1.3817,1.3829,1.3794,1.3794,1.377,1.3749,1.3757,1.3736,1.3725,1.3727,1.3705,1.3736,1.3725,1.37,1.3664,1.3716,1.373,1.3736,1.3645,1.3644,1.3643,1.3642,0,0,1.3926,1.3886,1.3892,1.3881,1.3855,1.3856,1.3865,1.3854,1.3853,1.3841,1.3845,1.3842,1.3817,1.381,1.3785,1.3794,1.3836,1.3766,1.3765,1.3777,1.3866,1.3883,1.3891,1.3817,1.3818,1.3819,1.3866,0,1.3983,1.3995,1.3963,1.3983,1.3983,1.394,1.3947,1.3931,1.3911,1.3908,1.3886,1.3883,1.3852,1.3847,1.3853,1.383,1.3853,1.3826,1.3819,1.3819,1.3822,1.3899,1.3918,1.3964,1.3872,1.3873,1.3874,0,1.4051,1.4041,1.406,1.403,1.4029,1.4036,1.4022,1.402,1.4,1.3985,1.3975,1.3946,1.395,1.3918,1.3922,1.3904,1.3899,1.3887,1.3888,1.3884,1.3848,1.3894,1.3978,1.3984,1.3883,1.3882,1.3881,0,1.4121,1.4112,1.4122,1.4115,1.4081,1.4086,1.4072,1.405,1.4045,1.4033,1.4028,1.4017,1.401,1.4002,1.3969,1.3949,1.3976,1.3941,1.3961,1.3962,1.3967,1.3967,1.4048,1.3969,1.3969,1.3969,1.3969,0,1.4187,1.42,1.4152,1.4158,1.417,1.4133,1.4146,1.4128,1.4109,1.4109,1.4071,1.4072,1.4031,1.4026,1.4001,1.4006,1.4005,1.3991,1.3983,1.3992,1.3994,1.3987,1.3982,1.397,1.397,1.397,1.3969,0,1.4266,1.4236,1.4242,1.4209,1.4201,1.4212,1.4182,1.4185,1.4163,1.4163,1.4161,1.4125,1.4118,1.4085,1.4071,1.4053,1.4066,1.4054,1.4073,1.4067,1.4088,1.4085,1.4165,1.4172,1.4092,1.4093,1.4093,0,1.4309,1.4317,1.4285,1.4282,1.4269,1.4266,1.426,1.4223,1.4218,1.4194,1.42,1.4189,1.4179,1.4169,1.4141,1.4128,1.4114,1.4143,1.4112,1.4119,1.411,1.4109,1.4108,1.4149,1.415,1.4151,1.4151,0,1.4386,1.437,1.4363,1.435,1.4343,1.4331,1.4316,1.4316,1.4275,1.4271,1.4263,1.4255,1.4238,1.4228,1.421,1.4195,1.4165,1.4161,1.4165,1.4173,1.4182,1.4174,1.4088,1.4159,1.4158,1.4158,1.4157,1.4157,1.4447,1.4451,1.4428,1.442,1.4405,1.4392,1.4392,1.4369,1.4361,1.4345,1.4324,1.4318,1.4295,1.4268,1.4255,1.4248,1.4232,1.4238,1.4239,1.424,1.4243,1.4185,1.4246,1.4245,1.4245,1.4245,1.4245,0,1.4519,1.4502,1.4495,1.4476,1.4469,1.4443,1.4424,1.442,1.4415,1.4397,1.4387,1.4376,1.4364,1.4335,1.432,1.4321,1.4307,1.4318,1.4316,1.4312,1.426,1.4257,1.4329,1.4329,1.4329,1.4329,1.4329,1.4329,1.4556,1.4561,1.4542,1.4538,1.4521,1.4514,1.4506,1.4492,1.4477,1.4466,1.4457,1.4438,1.4414,1.4397,1.4384,1.4376,1.4371,1.4386,1.4373,1.4325,1.4316,1.4309,1.4305,1.4386,1.4386,1.4425,1.4425,1.4425]},{"header":{"parameterUnit":"m.s-1","parameterCategory":1,"la1":30.2991,"la2":30.254,"lo1":-89.0895,"lo2":-89.0444,"dy":0.0017,"dx":0.0017,"nx":28,"ny":28,"refTime":"2023-08-02T09:00:00:Z","depth":0,"parameterNumber":3,"parameterNumberName":"V-component_of_WINDS"},"data":[0,0,0,0,0,0,0,0,0,0,0,0,0,0,0,0,0,0,0,0,0,0,0,0,0,0,0,0,0,0,0,0,0,0,0,0,0,0,0,0,0,0,0,0,0,0,0,0,0,0,0,0,0,0,0,0,0,0,0.4369,0.4371,0,0.4513,0.4515,0.4516,0.4578,0.4578,0.4578,0.4577,0.4724,0.4728,0.4732,0,0,0,0,0,0,0,0,0,0,0,0,0,0.4147,0.415,0.4369,0.4371,0.4373,0.4513,0.4515,0.4517,0.4578,0.4578,0.4578,0.4577,0.4723,0.4728,0.4733,0,0,0,0,0,0,0,0,0,0,0,0,0,0.4262,0.4152,0.4369,0.442,0.4426,0.4512,0.4515,0.4517,0.4578,0.4578,0.4577,0.4577,0.4721,0.4727,0.4734,0.4779,0,0,0.4752,0.4755,0,0,0,0,0,0,0,0,0.4255,0.427,0.4411,0.4417,0.4424,0.4527,0.449,0.4605,0.4578,0.4521,0.4577,0.4577,0.4659,0.467,0.4698,0.4786,0.4792,0.4753,0.4757,0.4759,0.4761,0,0,0,0,0,0,0,0.4247,0.4264,0.4426,0.4413,0.4421,0.4436,0.4452,0.4512,0.459,0.4526,0.453,0.4547,0.4663,0.4692,0.4702,0.4794,0.4753,0.4758,0.4762,0.4765,0.4925,0.4926,0,0,0,0,0,0,0.4231,0.4257,0.4421,0.443,0.4337,0.444,0.4458,0.4494,0.459,0.4604,0.4547,0.4549,0.4682,0.4695,0.4707,0.4767,0.4759,0.4765,0.4769,0.4925,0.4925,0.4926,0,0,0,0,0,0,0.4226,0.4245,0.4416,0.4345,0.4368,0.4444,0.4485,0.4497,0.4527,0.4606,0.462,0.4563,0.4682,0.4699,0.476,0.4772,0.4768,0.4774,0.4924,0.4925,0.4926,0.4885,0,0,0,0,0,0,0.4219,0.4243,0.4261,0.4345,0.4372,0.4467,0.4485,0.45,0.4538,0.4542,0.4624,0.4638,0.4683,0.4751,0.4767,0.4781,0.4779,0.4923,0.4924,0.4925,0.4885,0.4884,0.4883,0,0,0,0,0,0.4211,0.4244,0.4262,0.4282,0.4396,0.4467,0.4482,0.4534,0.4538,0.4557,0.4607,0.4635,0.4768,0.4757,0.4775,0.4791,0.4923,0.4924,0.4925,0.4886,0.4884,0.4883,0,0,0,0,0,0,0.4161,0.4256,0.4277,0.4338,0.4394,0.4477,0.4503,0.4531,0.4586,0.4588,0.4649,0.4667,0.4724,0.4764,0.4749,0.4839,0.4848,0.4853,0.4812,0.4811,0.481,0.4799,0.4784,0,0,0,0,0,0.4156,0.4206,0.4287,0.4333,0.436,0.4426,0.4459,0.4494,0.4554,0.4578,0.4633,0.469,0.4745,0.478,0.4835,0.4891,0.491,0.4911,0.491,0.4908,0.4912,0.4944,0.4946,0.493,0.493,0.493,0,0,0.4149,0.4207,0.4235,0.4325,0.4372,0.4422,0.4446,0.4498,0.4536,0.4586,0.4648,0.469,0.4758,0.4816,0.4845,0.4851,0.492,0.491,0.4908,0.4913,0.4945,0.4947,0.4948,0.4931,0.4931,0.493,0,0,0.416,0.4209,0.4253,0.43,0.4371,0.4414,0.4424,0.4504,0.4533,0.4596,0.4635,0.468,0.4773,0.4819,0.4855,0.4882,0.4909,0.4898,0.4892,0.4922,0.4923,0.4925,0.4934,0.4937,0.4901,0.4901,0.4901,0,0.4142,0.4219,0.4272,0.4322,0.436,0.4407,0.4451,0.4494,0.4579,0.4604,0.4609,0.4726,0.4776,0.4846,0.4852,0.4879,0.4893,0.4889,0.4919,0.4921,0.4923,0.4932,0.4936,0.4899,0.4899,0.49,0.49,0,0.4192,0.4245,0.4271,0.4352,0.4393,0.4439,0.4499,0.4534,0.4564,0.4607,0.4669,0.473,0.4797,0.4816,0.4846,0.489,0.4892,0.4907,0.4917,0.4922,0.4932,0.4936,0.4897,0.4897,0.4898,0.4898,0,0,0.4178,0.4286,0.4295,0.4332,0.4412,0.4454,0.4502,0.4567,0.4596,0.4652,0.4694,0.4771,0.4785,0.4826,0.4861,0.4888,0.4905,0.49,0.4903,0.4899,0.4956,0.4944,0.4947,0.4922,0.4923,0.4924,0.495,0,0.4201,0.4289,0.4338,0.4406,0.4455,0.4499,0.4541,0.4594,0.4635,0.4682,0.4727,0.478,0.4795,0.482,0.4848,0.4897,0.4917,0.4895,0.4962,0.4964,0.4944,0.4953,0.4941,0.4963,0.4954,0.4955,0.4956,0,0.424,0.4295,0.4367,0.4441,0.4464,0.4501,0.4564,0.4608,0.4669,0.4697,0.4741,0.4776,0.4828,0.4832,0.4904,0.4888,0.4918,0.4945,0.4948,0.4957,0.496,0.4962,0.4971,0.4974,0.4962,0.4962,0.4961,0,0.4222,0.4314,0.4369,0.4399,0.4487,0.4512,0.4549,0.461,0.4646,0.4701,0.4725,0.4785,0.4818,0.4863,0.4913,0.4912,0.498,0.4989,0.5004,0.5003,0.5017,0.5016,0.5031,0.5035,0.5035,0.5035,0.5035,0,0.4242,0.4285,0.4362,0.4396,0.4445,0.45,0.4547,0.4588,0.4641,0.4683,0.4725,0.4764,0.4828,0.4874,0.4913,0.4966,0.4981,0.5004,0.5014,0.5001,0.4998,0.5022,0.5022,0.5036,0.5036,0.5036,0.5035,0,0.4231,0.4285,0.4348,0.4425,0.4445,0.4478,0.4544,0.4578,0.462,0.4673,0.4689,0.4755,0.4811,0.4865,0.4941,0.4968,0.5021,0.5034,0.5,0.5006,0.5018,0.5016,0.505,0.5057,0.5055,0.5055,0.5055,0,0.4241,0.4275,0.4356,0.4387,0.4424,0.4473,0.451,0.4564,0.46,0.4672,0.4697,0.4757,0.4808,0.4896,0.495,0.5008,0.5023,0.5031,0.5032,0.5017,0.5024,0.5021,0.5025,0.503,0.503,0.5029,0.5029,0,0.4254,0.4278,0.4329,0.4389,0.4431,0.4481,0.4532,0.4555,0.4619,0.4657,0.4716,0.4755,0.4832,0.489,0.4954,0.4992,0.5021,0.5028,0.5035,0.5022,0.5001,0.5013,0.4997,0.5027,0.5028,0.5028,0.5028,0.5028,0.4254,0.4286,0.4347,0.4402,0.4446,0.4492,0.4528,0.4574,0.4623,0.469,0.4719,0.4778,0.4837,0.4925,0.4963,0.5009,0.5016,0.5026,0.5028,0.503,0.5027,0.4993,0.5021,0.5021,0.5021,0.5021,0.5022,0,0.4268,0.431,0.4359,0.4429,0.4472,0.4495,0.4552,0.4587,0.4638,0.469,0.4739,0.4805,0.4862,0.492,0.4979,0.5005,0.502,0.5019,0.5018,0.5026,0.5018,0.5006,0.5006,0.5006,0.5006,0.5006,0.5006,0.5006,0.4281,0.4336,0.4367,0.4443,0.4484,0.4542,0.4573,0.4615,0.4658,0.473,0.4777,0.4814,0.4868,0.4932,0.4984,0.5,0.502,0.5016,0.5035,0.5026,0.5027,0.5028,0.5017,0.5019,0.5019,0.504,0.504,0.504]}]]